Location: Arlington
(40.6323°N, 74.1651°W)
Time: 10:11:01
(UTC+00:00)

Cosmos 2227 - Pass Details

Date: 22 November 2019
Orbit: 832 x 864 km, 71.0° (Epoch: 10 December)

Event Time Altitude Azimuth Distance (km) Brightness Sun altitude
Rises 23:08:17 0° 335° (NNW) 3,450 7.6 -17.7°
Reaches altitude 10° 23:10:45 10° 335° (NNW) 2,508 6.8 -18.2°
Maximum altitude 23:16:32 82° 249° (WSW) 873 4.3 -19.2°
Drops below altitude 10° 23:22:14 10° 162° (SSE) 2,477 6.5 -20.3°
Sets 23:24:40 0° 161° (SSE) 3,404 7.3 -20.8°
